sat.trackr.live / text

‹ back to catalog

STARLINK-11520 [DTC]

NORAD 62834 · 2025-019F

PAYLOAD ACTIVE UNKNOWN

§ Identity

Operator
Country
US
Launch date
2025-01-27
Launch site
AFETR
Launch vehicle
Mass (kg)
RCS (m²)

Purposes: comms

External: N2YO · Heavens-Above · Gunter

§ Orbital elements

Epoch: 2026-05-25T04:23:55.646016Z

Period
91.67 min
Inclination
43.0015°
Eccentricity
0.0001994
Mean motion
15.70931972 rev/d
Perigee alt
354.9 km
Apogee alt
357.6 km
Semi-major
6,734.4 km
B*
1.3537e-3
RAAN
204.6863°
Arg perigee
274.6608°
Mean anomaly
85.4032°
Rev number
7,592

§ Raw data

STARLINK-11520 [DTC]1 62834U 25019F   26145.18328294  .00177704  00000+0  13537-2 0  99912 62834  43.0015 204.6863 0001994 274.6608  85.4032 15.70931972 75922

JSON: /api/v1/satellites/62834 · /tle

For live sub-satellite position, see the globe view (requires WebGL).

§ Visibility from observer

Set your observer location to see the next 7 days of passes ≥ 10°. The values pass through the URL so the page stays shareable.

No JS? Fill the form by hand. The geolocation button needs JavaScript.